AirNav   Bose ProFlight Aviation Headset
 
 267 users online  

1Q4 New Jerusalem Airport
Tracy, California, USA

GOING TO TRACY?


FAA INFORMATION EFFECTIVE 08 NOVEMBER 2018

Location

FAA Identifier: 1Q4
Lat/Long: 37-40-40.0000N / 121-18-04.3000W
37-40.666667N / 121-18.071667W
37.6777778 / -121.3011944
(estimated)
Elevation: 62 ft. / 19 m (estimated)
Variation: 16E (1985)
From city: 7 miles SE of TRACY, CA
Time zone: UTC -8 (UTC -7 during Daylight Saving Time)
Zip code: 95376

Airport Operations

Airport use: Open to the public
Activation date: 07/1944
Control tower: no
ARTCC: OAKLAND CENTER
FSS: RANCHO MURIETA FLIGHT SERVICE STATION
NOTAMs facility: RIU (NOTAM-D service available)
Attendance: UNATNDD
Pattern altitude: 862 ft. MSL
Wind indicator: yes
Segmented circle: no

Airport Communications

CTAF: 122.9
WX AWOS-3 at TCY (7 nm W): 118.375 (209-831-4335)
WX ASOS at SCK (13 nm N): PHONE 209-982-4270
WX ASOS at MOD (17 nm E): 127.7 (209-572-0914)
WX AWOS-3 at C83 (18 nm NW): 123.775 (925-634-0906)

Nearby radio navigation aids

VOR radial/distance  VOR name  Freq  Var
MODr264/16.6MODESTO VOR/DME114.6017E
LINr194/27.7LINDEN VOR/DME114.8017E
SJCr043/35.6SAN JOSE VOR/DME114.1016E

 
NDB name  Hdg/Dist  Freq  Var  ID
TRACY082/6.920315ETCY - -.-. -.--

Airport Services

Airframe service: NONE
Powerplant service: NONE
Bottled oxygen: NONE
Bulk oxygen: NONE

Runway Information

Runway 12/30

Dimensions: 3530 x 60 ft. / 1076 x 18 m
PAVED RUNWAY SAFETY AREA RY 12/30.
Surface: asphalt, in good condition
Weight bearing capacity: 
Single wheel: GROSS PAVEMENT STRENGTH PRVDD BY AIRPORT MANAGEMENT. 12500 LBS.
RUNWAY 12  RUNWAY 30
Latitude: 37-40.887333N37-40.446333N
Longitude: 121-18.310167W121-17.832667W
Elevation: 56.0 ft.61.0 ft.
Gradient: 0.1%0.1%
Traffic pattern: leftleft
Markings: basic, in good conditionbasic, in good condition
Runway end identifier lights: nono

Airport Ownership and Management from official FAA records

Ownership: Publicly-owned
Owner: CITY OF TRACY
333 CIVIC CENTER PLAZA
TRACY, CA 95376-4062
Phone (209) 831-6000
Manager: ED LOVELL
50 EAST 6TH STREET
TRACY, CA 95376-4168
Phone (209) 831-6204
CITY OF TRACY DEPT OF PARKS AND REC.

Airport Operational Statistics

Aircraft operations: avg 77/week *
100% transient general aviation
* for 12-month period ending 27 June 2018

Additional Remarks

MODEL AIRCRAFT ACTIVITY ON AND INVOF ABANDONED RY.
AEROBATIC ACTIVITY NORTH NORTHEAST OF AIRPORT AND OVER ABANDONED PARALLEL RY 12/30 FM SURFACE TO 4,000 FEET MSL.
NIGHT OPERATIONS PROHIBITED.
PARALLEL TWY ROUGH/UNEVEN SFC FM EXTSV ASPHALT RPR AND PATCHING.
FOR CD CTC NORCAL APCH AT 916-361-0516.

Instrument Procedures

There are no published instrument procedures at 1Q4.

Some nearby airports with instrument procedures:

KTCY - Tracy Municipal Airport (7 nm W)
KSCK - Stockton Metropolitan Airport (13 nm N)
KMOD - Modesto City-County Airport-Harry Sham Field (17 nm E)
C83 - Byron Airport (18 nm NW)
O27 - Oakdale Airport (24 nm E)
 
Loc | Ops | Rwys | IFR | FBO | Links
Com | Nav | Svcs | Stats | Notes


 
Area around 1Q4 (New Jerusalem Airport)
 
Road maps at: MapQuest Bing Google
 
Aerial photo
WARNING: Photo may not be current or correct
Aerial photo of 1Q4 (New Jerusalem Airport)
Photo taken 08-Jul-2006

Do you have a better or more recent aerial photo of New Jerusalem Airport that you would like to share? If so, please send us your photo.

 
Sectional chart

 
Airport distance calculator
Flying to New Jerusalem Airport? Find the distance to fly.

From to 1Q4

Sunrise and sunset
Times for 17-Nov-2018
 Local
(UTC-8)
 Zulu
(UTC)
Morning civil twilight06:2014:20
Sunrise06:4814:48
Sunset16:5200:52
Evening civil twilight17:2001:20

Current date and time
Zulu (UTC)  17-Nov-2018 09:22:33
Local (UTC-8)  17-Nov-2018 01:22:33
 
METAR
KTCY 
7nm W 
170855Z AUTO 00000KT 2SM HZ BKN003 OVC018 07/M05 A3000 RMK A01
KSCK 
13nm N 
170855Z AUTO 00000KT 2SM HZ OVC013 04/00 A3000 RMK AO2 SLP159 T00440000 53004
KMOD 
17nm E 
170853Z AUTO 12003KT 1 3/4SM BR CLR 03/02 A3000 RMK AO2 SLP158 T00330017 53002
KC83 
18nm NW 
170855Z AUTO 00000KT 2 1/2SM HZ OVC019 05/M05 A3000 RMK AO2
TAF
KSCK 
13nm N 
170530Z 1706/1806 VRB02KT 1 1/2SM FU HZ OVC010 FM172100 VRB03KT 3SM FU HZ SCT020
KMOD 
17nm E 
170530Z 1706/1806 00000KT 1 1/2SM FU HZ SCT010 FM172100 VRB03KT 3SM FU HZ SCT020
NOTAMs
Click for the latest NOTAMs
NOTAMs are issued by the DoD/FAA and will open in a separate window not controlled by AirNav.

 

 
 

Would you like to see your business listed on this page?

 If your business provides an interesting product or service to pilots, flight crews, aircraft, or users of the New Jerusalem Airport, you should consider listing it here.  To start the listing process, click on the button below
 
Add a business
 

Other Pages about New Jerusalem Airport

Update a link
 
Copyright © AirNav, LLC. All rights reserved. Privacy Policy  Contact